Location: Campestrin
(46.4667°N, 11.7167°E)
Time: 10:13:38
(UTC+00:00)

Cosmos 2058 - Pass Details

Date: 18 April 2021
Orbit: 562 x 583 km, 82.5° (Epoch: 06 May)

Event Time Altitude Azimuth Distance (km) Brightness Sun altitude
Rises 18:46:56 0° 358° (N) 2,812 6.8 -7.5°
Reaches altitude 10° 18:49:17 10° 7° (N) 1,905 5.8 -7.9°
Maximum altitude 18:53:10 35° 74° (ENE) 939 3.6 -8.5°
Drops below altitude 10° 18:56:59 10° 142° (SE) 1,879 5.0 -9.1°
Enters shadow 18:57:07 - 142° (SE) 1,926 5.0 -9.1°
